Presure
181 160 178 177 175 159 157 180 178 224 227 208 215 221 215 204 192 184 182 188 189 185 184 195 182 189 194 177 187 204 205 205 181 183 187 185 177 186 189 187 104 94 101 153 216 202 204
164 168 158 168 149 153 154 178 172 198 171 185 172 169 189 194 194 197 205 200 202 205 204 193 196 208 191 178 184 205 178 180 179 181 182 179 186 180 181 181 176 170 175 173 112 208 199
186 172 175 183 176 181 182 147 185 173 184 150 192 165 150 165 162 160 192 177 175 183 181 181 183 195 204 196 192 196 197 212 196 186 227 192 199 200 215 177 182 182 173 171 170 89 195
185 189 191 136 190 183 171 176 179 168 158 163 175 189 188 145 181 179 147 158 156 165 160 185 188 179 162 169 179 153 169 185 168 184 154 168 223 212 198 216 206 171 166 182 174 174 194
184 164 175 178 171 177 175 185 187 144 186 145 172 164 186 172 153 178 166 182 177 160 186 156 156 179 182 141 163 185 193 185 167 221 150 182 197 213 213 210 196 195 213 178 189 179 199
183 145 176 182 163 148 157 167 151 164 174 190 176 173 156 187 185 190 190 187 166 185 189 186 196 156 175 142 191 196 192 188 141 214 170 225 152 152 169 197 171 176 185 195 185 188 177
172 163 172 170 170 147 177 162 173 171 163 152 143 140 172 160 145 182 181 146 174 186 169 161 173 152 133 198 175 178 176 147 187 177 179 153 171 219 169 194 181 169 176 191 203 196 186
153 140 166 159 157 153 180 152 170 166 171 166 176 170 158 180 165 170 173 178 147 163 178 172 187 161 188 180 173 169 185 192 192 181 176 145 203 217 228 203 217 161 157 160 170 202 200
144 166 158 178 171 165 164 153 162 160 164 156 169 147 166 164 152 158 161 157 171 169 170 165 178 172 153 167 165 172 191 186 192 195 182 203 195 183 223 224 222 181 209 221 218 204 201
161 147 152 179 161 157 178 175 146 151 152 162 161 160 165 170 172 170 167 155 158 174 170 166 171 166 182 177 175 170 181 193 180 188 197 188 192 203 198 219 197 227 227 214 202 224 215
163 150 142 171 146 146 171 158 168 149 154 168 170 172 159 154 178 166 165 178 178 164 163 160 172 177 150 153 167 185 187 162 175 181 185 192 192 204 193 189 216 213 206 213 233 213 158
169 158 154 165 168 171 168 174 146 173 169 165 170 159 161 159 155 171 154 172 171 160 157 160 159 179 176 163 179 173 187 195 201 171 191 173 187 191 196 205 179 204 208 214 211 220 236
163 183 169 175 159 174 149 135 173 162 147 171 156 165 175 142 181 159 154 145 156 163 173 164 147 169 176 183 151 182 189 200 188 189 183 196 174 191 195 198 206 212 191 193 219 210 189
162 163 152 171 160 161 159 162 168 169 164 162 165 166 174 164 167 153 163 160 180 164 167 166 169 170 181 168 180 164 196 188 199 197 201 200 198 172 193 192 198 206 216 182 197 212 227
189 167 185 176 155 173 154 170 166 173 174 170 165 167 154 161 146 170 180 172 158 149 168 174 175 177 176 177 174 179 190 199 188 202 187 201 211 213 181 195 180 205 211 214 204 211 209
189 157 165 157 175 171 175 134 168 170 158 159 161 174 166 169 164 160 157 166 176 177 176 176 177 176 162 183 187 183 192 191 198 205 200 195 219 213 220 209 202 209 214 211 224 227 185
157 163 156 162 173 178 170 175 160 156 161 172 170 169 168 167 149 176 170 176 174 170 179 187 188 176 185 184 184 188 194 203 205 202 206 212 206 185 219 205 211 212 211 213 222 211 226
163 159 169 173 173 167 164 172 178 161 157 156 182 166 166 173 165 169 176 169 158 162 171 181 181 183 185 182 187 191 185 202 198 205 205 214 232 222 215 230 230 222 221 215 216 215 231
174 173 172 170 181 171 152 170 179 173 161 160 169 169 168 177 168 161 179 165 176 176 177 178 186 188 196 195 205 208 190 207 210 185 212 219 225 225 230 239 241 239 224 227 227 234 233
166 176 149 156 152 154 163 164 167 168 174 164 178 168 169 171 165 175 173 175 177 180 179 178 196 195 202 182 204 201 207 221 233 226 219 236 226 241 247 260 261 238 235 236 255 233 237
156 167 167 157 162 160 165 160 178 172 181 175 172 176 181 170 156 173 174 181 190 190 189 198 208 213 198 202 190 215 228 233 235 226 240 255 261 223 246 275 274 236 230 247 266 264 266
168 162 170 155 156 172 172 183 182 190 188 181 182 185 191 186 194 174 198 188 193 202 211 248 206 211 205 246 239 237 241 226 232 244 255 262 265 251 295 237 306 262 277 276 276 281 294
176 184 174 188 183 183 187 179 194 189 185 191 189 198 194 205 205 216 224 225 245 222 217 222 235 275 267 246 261 269 234 257 259 268 268 259 292 328 289 286 297 308 288 294 309 309 289
178 177 182 188 179 192 184 188 180 201 193 196 199 181 201 215 263 199 215 220 216 272 275 236 287 282 238 283 286 284 276 278 268 254 277 248 307 300 302 296 296 295 291 267 244 242 244
188 198 175 192 197 190 206 194 206 203 207 213 225 196 241 244 245 232 267 294 303 301 284 297 288 287 289 286 310 314 338 317 312 323 308 294 297 291 283 275 256 238 245 247 250 256 264
181 141 200 195 183 205 208 202 217 232 239 246 245 235 239 233 312 314 303 302 309 320 303 313 323 336 332 338 331 324 306 305 306 297 287 258 247 246 246 250 256 262 277 285 288 281 279
194 199 184 167 218 218 213 222 218 211 219 229 235 261 315 308 319 329 339 333 335 332 326 325 298 321 309 307 302 285 283 252 241 244 242 246 249 256 270 278 325 365 359 353 370 360 366
214 205 202 194 206 225 231 228 227 224 297 329 343 362 350 344 336 329 319 306 301 289 285 289 287 284 280 276 275 274 274 273 264 260 258 263 352 364 382 371 361 365 353 352 362 349 344
215 211 242 242 246 251 234 340 368 366 356 337 330 318 308 306 305 298 292 284 286 286 294 335 288 282 281 375 370 391 381 370 361 362 359 367 359 355 351 353 349 342 342 339 333 350 338
Wind_Speed
17 10 17 12 13 11 18 15 17 8 10 15 16 17 22 28 39 44 48 49 49 55 57 51 61 58 56 68 58 53 55 58 65 62 58 58 61 53 50 46 35 31 35 46 35 33 34
11 22 12 11 21 22 17 18 15 14 20 18 21 25 22 24 24 26 27 31 33 37 38 47 47 43 56 63 59 51 62 61 62 63 64 60 60 58 57 53 54 55 52 53 40 36 34
23 32 32 23 22 19 16 27 16 15 16 26 22 26 33 28 31 38 30 38 38 38 41 46 48 45 46 48 51 49 53 51 57 55 54 56 53 52 52 57 51 50 54 54 53 37 34
23 15 16 27 9 15 21 15 17 21 25 23 25 16 24 37 34 37 46 37 42 43 43 41 47 51 53 51 49 55 55 55 53 55 50 51 54 53 52 52 50 53 55 51 54 46 38
21 24 19 18 24 14 15 14 11 34 16 37 25 26 22 33 36 30 38 37 38 47 45 54 50 53 52 54 56 53 50 51 56 43 48 53 53 54 51 49 49 48 44 51 50 50 43
15 27 16 16 23 30 28 21 31 26 14 16 21 29 37 24 26 25 28 33 41 37 37 42 40 55 52 57 55 51 46 62 59 45 53 48 54 54 49 49 52 46 44 45 52 50 42
25 26 19 20 21 36 15 25 16 19 27 34 34 36 29 40 43 25 29 44 38 37 51 53 51 56 61 44 55 55 57 61 57 57 61 51 56 50 47 54 53 50 46 52 53 49 42
27 36 31 34 37 36 15 37 20 26 23 21 21 22 30 26 35 28 30 32 44 46 43 48 43 49 45 50 57 60 49 48 51 58 61 64 52 50 51 52 55 50 51 59 51 51 41
39 31 34 25 29 30 33 32 29 32 28 33 31 37 31 33 44 44 39 39 35 38 39 57 49 47 58 57 58 55 56 53 52 48 50 43 53 50 46 52 57 56 58 57 57 58 47
36 41 36 33 38 38 26 28 47 46 48 37 38 38 35 34 33 31 37 49 48 36 37 50 57 55 59 55 56 59 61 64 59 54 50 52 48 50 50 48 50 50 60 57 56 57 56
39 45 48 37 42 45 35 40 37 48 48 38 39 39 45 50 47 41 43 49 49 41 43 45 59 63 65 63 59 68 66 64 61 57 55 55 51 52 50 63 50 50 55 55 55 57 47
42 45 43 42 41 41 42 40 42 38 42 43 43 43 52 48 51 51 54 51 49 57 58 55 55 74 69 66 66 64 76 75 70 64 60 61 56 56 58 57 70 56 52 56 58 56 49
44 43 47 40 46 40 48 44 44 47 53 54 52 50 56 56 63 57 55 62 59 60 69 62 66 71 73 79 66 75 74 75 67 68 67 68 64 63 63 61 63 66 68 66 56 59 47
49 46 50 47 49 47 50 50 48 49 49 53 51 56 60 56 61 61 58 59 75 68 66 68 70 68 84 71 77 71 84 69 82 79 78 73 74 71 70 66 66 68 67 76 72 59 53
45 49 48 46 56 53 55 52 52 54 56 56 53 62 62 62 66 68 79 70 71 71 76 82 81 81 79 81 77 78 88 91 80 88 73 81 81 80 69 72 78 76 74 76 71 70 65
49 48 49 54 54 53 56 52 54 57 50 56 61 76 69 74 66 73 71 74 88 88 85 85 84 82 77 90 92 85 90 90 91 89 86 81 84 80 82 81 77 81 79 78 81 78 50
51 55 53 55 60 63 60 68 57 56 62 71 71 76 76 76 73 84 83 86 87 88 95 97 93 87 94 96 93 94 93 95 93 89 88 86 79 71 77 81 85 85 84 85 85 82 79
58 55 63 67 69 63 62 70 75 64 62 65 81 77 79 88 83 87 93 85 80 85 93 98 95 96 94 91 96 96 90 96 92 93 92 93 91 81 80 84 87 86 86 89 91 85 86
66 67 69 67 75 66 61 73 86 77 69 73 81 83 84 93 86 83 97 89 97 99 101 96 102 103 106 103 104 100 94 101 98 89 96 97 92 89 86 88 90 88 88 92 94 95 85
63 72 61 63 64 67 77 73 78 80 83 75 96 89 92 92 90 97 95 97 103 104 105 101 113 111 109 94 105 102 103 102 102 100 99 100 93 94 89 94 97 88 89 93 100 95 95
64 72 74 69 75 77 80 78 99 91 100 92 92 102 107 97 89 100 101 109 115 113 112 119 119 114 109 109 99 108 103 101 101 101 106 108 101 91 90 97 100 86 83 92 98 97 103
80 72 81 72 77 92 91 104 106 111 109 101 103 102 107 102 113 101 117 109 115 123 123 119 111 113 111 110 106 102 102 98 100 104 109 107 103 96 97 92 98 90 95 95 94 93 96
95 97 91 106 107 104 110 102 120 115 108 114 109 118 105 120 122 130 129 127 125 112 111 110 112 110 110 109 109 106 101 102 102 105 107 102 108 92 91 95 94 85 87 86 84 84 84
101 100 106 115 105 117 110 113 105 127 116 117 122 112 123 125 133 108 113 114 112 119 115 102 109 107 103 106 106 105 101 101 99 97 101 92 93 92 88 87 85 82 80 82 84 86 89
113 120 99 115 118 108 133 118 133 127 135 136 142 120 143 127 128 121 126 120 116 115 110 109 108 106 107 104 107 96 87 91 86 83 86 89 88 84 84 83 81 80 83 87 90 92 95
103 73 125 112 98 131 132 124 137 142 146 144 140 136 134 129 115 115 115 112 113 112 110 110 107 100 100 94 90 87 88 87 85 82 84 83 87 87 88 90 88 88 88 86 84 82 81
115 122 117 102 146 142 138 145 137 123 133 136 137 132 120 116 110 110 106 106 103 100 100 98 96 93 93 91 91 86 84 86 86 87 88 89 90 91 93 90 69 47 48 49 43 46 42
146 136 120 119 124 149 148 141 140 135 125 119 109 102 103 104 101 99 99 100 101 101 100 100 96 94 93 91 92 89 87 87 86 88 89 88 57 49 42 43 44 41 43 44 40 43 42
145 139 150 145 151 148 140 118 109 105 103 104 100 102 106 105 103 102 102 102 101 101 100 90 97 95 94 55 58 53 50 50 47 44 46 42 43 44 43 41 41 42 42 40 41 42 41
Wind_Direction
334 298 339 304 325 279 279 301 289 269 267 264 269 277 274 272 268 266 263 265 265 266 267 272 269 272 276 275 275 283 283 282 278 280 281 281 281 284 285 280 267 265 277 281 280 282 272
306 323 289 279 263 267 273 310 284 307 278 285 275 270 279 280 280 280 284 280 280 279 278 276 280 285 279 279 279 282 280 282 284 284 283 283 283 282 282 279 277 278 279 280 272 270 271
328 334 327 327 319 318 310 268 292 286 291 268 289 269 267 281 275 274 282 277 278 279 279 279 282 286 291 284 280 281 280 288 282 285 288 286 285 284 285 277 276 278 278 278 278 268 271
318 313 325 272 318 311 317 309 301 306 273 296 294 300 294 277 286 287 280 276 279 281 281 286 286 285 283 285 287 288 286 288 286 289 282 285 287 286 284 281 277 275 277 277 275 274 273
311 316 306 320 315 311 315 330 316 281 315 269 301 281 304 292 285 285 281 289 287 284 289 285 281 287 288 281 285 291 297 292 288 306 280 291 293 288 284 288 283 281 283 273 275 271 264
298 303 300 313 290 307 300 288 298 292 306 351 299 302 289 324 308 319 306 300 284 300 299 294 293 283 289 277 289 293 303 293 276 302 286 299 277 274 284 285 277 279 279 277 269 268 268
299 295 292 284 287 304 305 286 291 312 297 295 294 281 315 296 298 323 320 293 304 305 293 294 296 291 277 303 292 289 291 276 296 290 291 276 280 289 283 282 276 278 275 278 273 265 266
294 302 283 287 285 290 295 291 286 280 311 293 316 305 295 318 295 296 316 326 288 301 303 299 300 291 309 305 292 292 304 308 304 297 295 277 294 293 291 284 284 270 271 271 273 272 261
295 277 285 269 276 285 284 290 283 282 292 292 301 296 294 284 293 291 291 301 311 311 310 304 309 305 292 297 294 302 314 306 309 306 301 309 296 289 296 291 284 276 281 272 268 270 266
279 290 288 280 283 285 288 271 289 286 284 282 286 288 289 296 296 291 290 292 296 310 310 304 314 302 316 303 302 299 313 318 304 306 309 301 296 312 295 294 282 290 279 277 274 268 267
274 282 290 281 285 290 278 282 271 288 279 294 306 305 292 294 315 297 297 315 310 288 292 290 319 317 289 292 296 315 316 291 297 303 301 305 301 312 294 292 291 281 280 279 280 271 263
275 277 285 280 282 283 282 288 294 292 286 291 300 292 302 291 290 309 300 308 312 296 287 294 294 316 312 293 309 298 312 312 310 287 304 288 298 297 302 307 286 281 278 274 273 274 271
282 276 278 277 281 288 283 295 297 283 285 305 299 295 307 292 313 297 297 293 295 297 307 302 288 305 308 314 288 306 310 312 303 303 298 304 284 300 298 299 300 290 278 277 273 268 271
284 278 287 281 282 282 288 289 294 297 297 297 303 305 310 307 307 295 298 295 313 304 301 300 302 299 308 295 304 295 313 303 310 307 306 303 303 286 296 290 294 293 286 278 275 269 268
283 288 285 286 290 288 290 292 297 297 297 303 305 306 289 299 294 308 313 310 291 292 304 305 303 304 304 302 297 302 308 308 301 305 292 301 299 297 282 290 285 292 289 282 278 271 265
288 292 293 293 287 294 292 289 304 301 300 302 302 305 305 307 297 293 296 300 305 304 303 303 302 299 288 304 305 303 305 303 302 300 297 293 297 293 291 288 286 286 283 281 282 276 272
293 298 301 305 301 301 309 305 301 298 304 305 305 308 306 303 294 307 304 306 304 300 305 306 304 298 303 302 302 301 301 302 299 296 295 294 288 279 289 285 284 283 281 278 275 272 273
295 298 302 303 304 308 306 301 301 300 294 293 305 302 302 305 299 302 304 298 290 293 298 302 300 301 299 297 298 298 295 297 293 295 293 294 294 288 286 287 282 278 278 275 275 271 271
300 302 305 308 300 304 292 305 301 301 293 294 303 301 298 302 298 291 303 294 298 298 296 297 300 299 298 297 298 297 292 295 294 288 291 290 290 288 287 288 282 279 275 275 273 272 270
306 303 291 299 296 295 302 299 297 299 301 297 305 299 297 298 292 299 296 296 297 297 296 295 297 297 296 290 295 294 293 293 293 291 288 289 287 289 288 283 278 275 276 280 277 272 271
298 302 301 293 297 293 300 294 303 302 302 301 300 300 300 295 285 293 293 297 298 296 295 295 294 293 293 293 290 291 291 291 290 289 289 287 288 283 286 281 277 275 275 278 276 275 273
302 294 301 288 288 301 299 301 302 302 299 299 299 298 298 296 300 296 298 293 295 296 292 292 292 290 289 291 289 289 289 289 288 287 285 285 286 285 281 281 279 278 279 276 276 276 277
302 300 301 301 302 302 303 302 303 302 300 301 299 300 297 303 302 300 296 295 294 292 290 289 287 288 288 288 288 287 286 287 286 284 283 284 284 284 281 280 279 278 277 276 276 275 274
302 301 301 302 302 301 301 300 298 302 299 300 301 296 299 299 297 290 294 292 289 292 292 291 288 288 289 287 286 286 286 285 284 285 283 285 282 281 280 278 277 277 275 272 272 272 271
302 300 302 302 300 301 301 301 302 302 300 300 298 294 299 298 298 299 295 292 289 287 289 287 285 286 286 286 285 286 287 285 285 284 283 281 280 280 280 278 277 278 275 273 272 271 270
300 297 303 304 300 303 303 300 300 299 298 298 299 299 297 299 292 288 288 288 285 283 285 284 283 283 283 284 283 284 283 282 282 281 279 280 283 284 283 281 278 276 276 275 273 271 271
303 305 300 298 301 302 302 300 301 301 299 297 297 293 289 289 288 283 283 283 283 283 283 283 285 285 284 283 283 283 282 282 282 282 282 282 283 283 281 281 280 277 276 275 271 274 270
302 303 304 301 304 298 297 297 296 297 291 288 286 282 282 282 282 283 282 283 283 285 286 284 285 285 285 286 285 284 282 280 279 277 278 280 280 278 275 274 275 273 274 274 269 269 267
300 301 297 298 297 296 297 288 285 285 284 284 285 284 284 284 284 283 283 284 284 283 282 282 283 283 283 274 275 275 276 280 279 277 277 279 277 276 274 273 272 271 271 270 270 264 265